Year,Month,Day,Hour,Minute,Value (Times are PST for temperature in C)
2012,07,19,00,00,13.30
2012,07,19,00,01,13.30
2012,07,19,00,02,13.20
2012,07,19,00,03,13.20
2012,07,19,00,04,13.20
2012,07,19,00,05,13.20
2012,07,19,00,06,13.20
2012,07,19,00,07,13.20
2012,07,19,00,08,13.10
2012,07,19,00,09,13.10
2012,07,19,00,10,13.10
2012,07,19,00,11,13.00
2012,07,19,00,12,13.00
2012,07,19,00,13,13.00
2012,07,19,00,14,12.90
2012,07,19,00,15,12.90
2012,07,19,00,16,12.90
2012,07,19,00,17,12.90
2012,07,19,00,18,12.80
2012,07,19,00,19,12.80
2012,07,19,00,20,12.80
2012,07,19,00,21,12.80
2012,07,19,00,22,12.80
2012,07,19,00,23,12.80
2012,07,19,00,24,12.80
2012,07,19,00,25,12.80
2012,07,19,00,26,12.70
2012,07,19,00,27,12.70
2012,07,19,00,28,12.70
2012,07,19,00,29,12.70
2012,07,19,00,30,12.70
2012,07,19,00,31,12.70
2012,07,19,00,32,12.70
2012,07,19,00,33,12.70
2012,07,19,00,34,12.70
2012,07,19,00,35,12.80
2012,07,19,00,36,12.80
2012,07,19,00,37,12.80
2012,07,19,00,38,12.80
2012,07,19,00,39,12.80
2012,07,19,00,40,12.80
2012,07,19,00,41,12.80
2012,07,19,00,42,12.80
2012,07,19,00,43,12.80
2012,07,19,00,44,12.90
2012,07,19,00,45,12.90
2012,07,19,00,46,12.90
2012,07,19,00,47,12.90
2012,07,19,00,48,13.00
2012,07,19,00,49,13.00
2012,07,19,00,50,13.10
2012,07,19,00,51,13.10
2012,07,19,00,52,13.10
2012,07,19,00,53,13.20
2012,07,19,00,54,13.20
2012,07,19,00,55,13.20
2012,07,19,00,56,13.20
2012,07,19,00,57,13.30
2012,07,19,00,58,13.30
2012,07,19,00,59,13.30
2012,07,19,01,00,13.30
2012,07,19,01,01,13.30
2012,07,19,01,02,13.30
2012,07,19,01,03,13.30
2012,07,19,01,04,13.30
2012,07,19,01,05,13.30
2012,07,19,01,06,13.30
2012,07,19,01,07,13.30
2012,07,19,01,08,13.30
2012,07,19,01,09,13.30
2012,07,19,01,10,13.30
2012,07,19,01,11,13.30
2012,07,19,01,12,13.30
2012,07,19,01,13,13.30
2012,07,19,01,14,13.30
2012,07,19,01,15,13.30
2012,07,19,01,16,13.30
2012,07,19,01,17,13.30
2012,07,19,01,18,13.30
2012,07,19,01,19,13.30
2012,07,19,01,20,13.30
2012,07,19,01,21,13.30
2012,07,19,01,22,13.30
2012,07,19,01,23,13.30
2012,07,19,01,24,13.30
2012,07,19,01,25,13.30
2012,07,19,01,26,13.30
2012,07,19,01,27,13.30
2012,07,19,01,28,13.30
2012,07,19,01,29,13.30
2012,07,19,01,30,13.30
2012,07,19,01,31,13.30
2012,07,19,01,32,13.30
2012,07,19,01,33,13.30
2012,07,19,01,34,13.30
2012,07,19,01,35,13.30
2012,07,19,01,36,13.30
2012,07,19,01,37,13.30
2012,07,19,01,38,13.30
2012,07,19,01,39,13.30
2012,07,19,01,40,13.30
2012,07,19,01,41,13.20
2012,07,19,01,42,13.30
2012,07,19,01,43,13.30
2012,07,19,01,44,13.30
2012,07,19,01,45,13.30
2012,07,19,01,46,13.30
2012,07,19,01,47,13.30
2012,07,19,01,48,13.30
2012,07,19,01,49,13.30
2012,07,19,01,50,13.20
2012,07,19,01,51,13.20
2012,07,19,01,52,13.20
2012,07,19,01,53,13.20
2012,07,19,01,54,13.20
2012,07,19,01,55,13.20
2012,07,19,01,56,13.10
2012,07,19,01,57,13.10
2012,07,19,01,58,13.10
2012,07,19,01,59,13.10
2012,07,19,02,00,13.10
2012,07,19,02,01,13.10
2012,07,19,02,02,13.00
2012,07,19,02,03,13.00
2012,07,19,02,04,13.00
2012,07,19,02,05,13.00
2012,07,19,02,06,13.00
2012,07,19,02,07,13.00
2012,07,19,02,08,12.90
2012,07,19,02,09,12.90
2012,07,19,02,10,12.90
2012,07,19,02,11,12.90
2012,07,19,02,12,12.90
2012,07,19,02,13,12.90
2012,07,19,02,14,12.90
2012,07,19,02,15,12.90
2012,07,19,02,16,12.90
2012,07,19,02,17,12.90
2012,07,19,02,18,12.90
2012,07,19,02,19,12.90
2012,07,19,02,20,13.00
2012,07,19,02,21,13.00
2012,07,19,02,22,13.00
2012,07,19,02,23,13.00
2012,07,19,02,24,13.00
2012,07,19,02,25,13.00
2012,07,19,02,26,13.00
2012,07,19,02,27,13.00
2012,07,19,02,28,13.00
2012,07,19,02,29,13.00
2012,07,19,02,30,13.10
2012,07,19,02,31,13.10
2012,07,19,02,32,13.10
2012,07,19,02,33,13.10
2012,07,19,02,34,13.10
2012,07,19,02,35,13.10
2012,07,19,02,36,13.10
2012,07,19,02,37,13.00
2012,07,19,02,38,13.00
2012,07,19,02,39,13.00
2012,07,19,02,40,13.00
2012,07,19,02,41,13.00
2012,07,19,02,42,13.00
2012,07,19,02,43,13.00
2012,07,19,02,44,13.00
2012,07,19,02,45,13.00
2012,07,19,02,46,13.10
2012,07,19,02,47,13.10
2012,07,19,02,48,13.10
2012,07,19,02,49,13.10
2012,07,19,02,50,13.10
2012,07,19,02,51,13.10
2012,07,19,02,52,13.00
2012,07,19,02,53,13.00
2012,07,19,02,54,13.00
2012,07,19,02,55,13.00
2012,07,19,02,56,13.10
2012,07,19,02,57,13.10
2012,07,19,02,58,13.10
2012,07,19,02,59,13.10
2012,07,19,03,00,13.10
2012,07,19,03,01,13.00
2012,07,19,03,02,13.00
2012,07,19,03,03,13.00
2012,07,19,03,04,13.00
2012,07,19,03,05,13.00
2012,07,19,03,06,13.00
2012,07,19,03,07,13.00
2012,07,19,03,08,13.00
2012,07,19,03,09,13.00
2012,07,19,03,10,12.90
2012,07,19,03,11,12.90
2012,07,19,03,12,12.90
2012,07,19,03,13,12.90
2012,07,19,03,14,12.90
2012,07,19,03,15,12.90
2012,07,19,03,16,12.90
2012,07,19,03,17,13.00
2012,07,19,03,18,13.00
2012,07,19,03,19,12.90
2012,07,19,03,20,12.90
2012,07,19,03,21,12.90
2012,07,19,03,22,12.90
2012,07,19,03,23,12.90
2012,07,19,03,24,12.90
2012,07,19,03,25,12.90
2012,07,19,03,26,12.90
2012,07,19,03,27,12.90
2012,07,19,03,28,12.90
2012,07,19,03,29,12.90
2012,07,19,03,30,12.90
2012,07,19,03,31,12.90
2012,07,19,03,32,12.90
2012,07,19,03,33,12.90
2012,07,19,03,34,12.90
2012,07,19,03,35,12.90
2012,07,19,03,36,12.90
2012,07,19,03,37,12.90
2012,07,19,03,38,12.90
2012,07,19,03,39,12.90
2012,07,19,03,40,12.90
2012,07,19,03,41,12.90
2012,07,19,03,42,12.90
2012,07,19,03,43,12.90
2012,07,19,03,44,12.90
2012,07,19,03,45,12.90
2012,07,19,03,46,12.90
2012,07,19,03,47,12.90
2012,07,19,03,48,12.90
2012,07,19,03,49,12.90
2012,07,19,03,50,12.90
2012,07,19,03,51,12.90
2012,07,19,03,52,12.90
2012,07,19,03,53,12.90
2012,07,19,03,54,12.80
2012,07,19,03,55,12.80
2012,07,19,03,56,12.80
2012,07,19,03,57,12.80
2012,07,19,03,58,12.80
2012,07,19,03,59,12.80
2012,07,19,04,00,12.80
2012,07,19,04,01,12.80
2012,07,19,04,02,12.80
2012,07,19,04,03,12.80
2012,07,19,04,04,12.80
2012,07,19,04,05,12.80
2012,07,19,04,06,12.80
2012,07,19,04,07,12.80
2012,07,19,04,08,12.80
2012,07,19,04,09,12.80
2012,07,19,04,10,12.80
2012,07,19,04,11,12.80
2012,07,19,04,12,12.80
2012,07,19,04,13,12.80
2012,07,19,04,14,12.80
2012,07,19,04,15,12.80
2012,07,19,04,16,12.80
2012,07,19,04,17,12.80
2012,07,19,04,18,12.80
2012,07,19,04,19,12.80
2012,07,19,04,20,12.70
2012,07,19,04,21,12.70
2012,07,19,04,22,12.70
2012,07,19,04,23,12.70
2012,07,19,04,24,12.70
2012,07,19,04,25,12.70
2012,07,19,04,26,12.70
2012,07,19,04,27,12.70
2012,07,19,04,28,12.70
2012,07,19,04,29,12.70
2012,07,19,04,30,12.70
2012,07,19,04,31,12.70
2012,07,19,04,32,12.70
2012,07,19,04,33,12.70
2012,07,19,04,34,12.70
2012,07,19,04,35,12.80
2012,07,19,04,36,12.80
2012,07,19,04,37,12.80
2012,07,19,04,38,12.70
2012,07,19,04,39,12.70
2012,07,19,04,40,12.70
2012,07,19,04,41,12.70
2012,07,19,04,42,12.70
2012,07,19,04,43,12.70
2012,07,19,04,44,12.80
2012,07,19,04,45,12.80
2012,07,19,04,46,12.80
2012,07,19,04,47,12.80
2012,07,19,04,48,12.80
2012,07,19,04,49,12.80
2012,07,19,04,50,12.80
2012,07,19,04,51,12.80
2012,07,19,04,52,12.80
2012,07,19,04,53,12.80
2012,07,19,04,54,12.80
2012,07,19,04,55,12.80
2012,07,19,04,56,12.80
2012,07,19,04,57,12.80
2012,07,19,04,58,12.80
2012,07,19,04,59,12.80
2012,07,19,05,00,12.80
2012,07,19,05,01,12.80
2012,07,19,05,02,12.80
2012,07,19,05,03,12.80
2012,07,19,05,04,12.80
2012,07,19,05,05,12.80
2012,07,19,05,06,12.80
2012,07,19,05,07,12.80
2012,07,19,05,08,12.90
2012,07,19,05,09,12.90
2012,07,19,05,10,12.90
2012,07,19,05,11,12.90
2012,07,19,05,12,12.90
2012,07,19,05,13,12.90
2012,07,19,05,14,12.90
2012,07,19,05,15,12.90
2012,07,19,05,16,12.90
2012,07,19,05,17,12.90
2012,07,19,05,18,12.90
2012,07,19,05,19,12.90
2012,07,19,05,20,12.90
2012,07,19,05,21,12.90
2012,07,19,05,22,12.90
2012,07,19,05,23,12.90
2012,07,19,05,24,12.90
2012,07,19,05,25,13.00
2012,07,19,05,26,13.00
2012,07,19,05,27,13.00
2012,07,19,05,28,13.00
2012,07,19,05,29,13.00
2012,07,19,05,30,13.00
2012,07,19,05,31,13.00
2012,07,19,05,32,13.00
2012,07,19,05,33,13.00
2012,07,19,05,34,13.10
2012,07,19,05,35,13.10
2012,07,19,05,36,13.10
2012,07,19,05,37,13.10
2012,07,19,05,38,13.10
2012,07,19,05,39,13.10
2012,07,19,05,40,13.20
2012,07,19,05,41,13.20
2012,07,19,05,42,13.20
2012,07,19,05,43,13.20
2012,07,19,05,44,13.20
2012,07,19,05,45,13.20
2012,07,19,05,46,13.20
2012,07,19,05,47,13.20
2012,07,19,05,48,13.20
2012,07,19,05,49,13.20
2012,07,19,05,50,13.20
2012,07,19,05,51,13.20
2012,07,19,05,52,13.20
2012,07,19,05,53,13.20
2012,07,19,05,54,13.20
2012,07,19,05,55,13.20
2012,07,19,05,56,13.20
2012,07,19,05,57,13.20
2012,07,19,05,58,13.20
2012,07,19,05,59,13.20
2012,07,19,06,00,13.20
2012,07,19,06,01,13.20
2012,07,19,06,02,13.20
2012,07,19,06,03,13.20
2012,07,19,06,04,13.20
2012,07,19,06,05,13.20
2012,07,19,06,06,13.30
2012,07,19,06,07,13.30
2012,07,19,06,08,13.30
2012,07,19,06,09,13.30
2012,07,19,06,10,13.30
2012,07,19,06,11,13.30
2012,07,19,06,12,13.30
2012,07,19,06,13,13.30
2012,07,19,06,14,13.30
2012,07,19,06,15,13.30
2012,07,19,06,16,13.30
2012,07,19,06,17,13.30
2012,07,19,06,18,13.30
2012,07,19,06,19,13.30
2012,07,19,06,20,13.40
2012,07,19,06,21,13.40
2012,07,19,06,22,13.40
2012,07,19,06,23,13.40
2012,07,19,06,24,13.50
2012,07,19,06,25,13.50
2012,07,19,06,26,13.50
2012,07,19,06,27,13.60
2012,07,19,06,28,13.60
2012,07,19,06,29,13.60
2012,07,19,06,30,13.70
2012,07,19,06,31,13.70
2012,07,19,06,32,13.70
2012,07,19,06,33,13.70
2012,07,19,06,34,13.70
2012,07,19,06,35,13.70
2012,07,19,06,36,13.70
2012,07,19,06,37,13.70
2012,07,19,06,38,13.70
2012,07,19,06,39,13.70
2012,07,19,06,40,13.80
2012,07,19,06,41,13.80
2012,07,19,06,42,13.90
2012,07,19,06,43,13.90
2012,07,19,06,44,14.00
2012,07,19,06,45,14.00
2012,07,19,06,46,14.00
2012,07,19,06,47,14.10
2012,07,19,06,48,14.10
2012,07,19,06,49,14.20
2012,07,19,06,50,14.20
2012,07,19,06,51,14.20
2012,07,19,06,52,14.20
2012,07,19,06,53,14.20
2012,07,19,06,54,14.20
2012,07,19,06,55,14.30
2012,07,19,06,56,14.30
2012,07,19,06,57,14.40
2012,07,19,06,58,14.40
2012,07,19,06,59,14.40
2012,07,19,07,00,14.50
2012,07,19,07,01,14.50
2012,07,19,07,02,14.60
2012,07,19,07,03,14.60
2012,07,19,07,04,14.70
2012,07,19,07,05,14.70
2012,07,19,07,06,14.80
2012,07,19,07,07,14.80
2012,07,19,07,08,14.80
2012,07,19,07,09,14.90
2012,07,19,07,10,14.90
2012,07,19,07,11,15.00
2012,07,19,07,12,15.00
2012,07,19,07,13,15.10
2012,07,19,07,14,15.20
2012,07,19,07,15,15.30
2012,07,19,07,16,15.30
2012,07,19,07,17,15.30
2012,07,19,07,18,15.30
2012,07,19,07,19,15.30
2012,07,19,07,20,15.30
2012,07,19,07,21,15.30
2012,07,19,07,22,15.30
2012,07,19,07,23,15.30
2012,07,19,07,24,15.30
2012,07,19,07,25,15.30
2012,07,19,07,26,15.40
2012,07,19,07,27,15.30
2012,07,19,07,28,15.30
2012,07,19,07,29,15.30
2012,07,19,07,30,15.30
2012,07,19,07,31,15.30
2012,07,19,07,32,15.40
2012,07,19,07,33,15.40
2012,07,19,07,34,15.50
2012,07,19,07,35,15.50
2012,07,19,07,36,15.50
2012,07,19,07,37,15.50
2012,07,19,07,38,15.50
2012,07,19,07,39,15.50
2012,07,19,07,40,15.50
2012,07,19,07,41,15.60
2012,07,19,07,42,15.60
2012,07,19,07,43,15.60
2012,07,19,07,44,15.60
2012,07,19,07,45,15.70
2012,07,19,07,46,15.70
2012,07,19,07,47,15.80
2012,07,19,07,48,15.80
2012,07,19,07,49,15.80
2012,07,19,07,50,15.90
2012,07,19,07,51,16.00
2012,07,19,07,52,16.10
2012,07,19,07,53,16.10
2012,07,19,07,54,16.10
2012,07,19,07,55,16.10
2012,07,19,07,56,16.20
2012,07,19,07,57,16.20
2012,07,19,07,58,16.20
2012,07,19,07,59,16.20
2012,07,19,08,00,16.20
2012,07,19,08,01,16.20
2012,07,19,08,02,16.20
2012,07,19,08,03,16.20
2012,07,19,08,04,16.10
2012,07,19,08,05,16.10
2012,07,19,08,06,16.10
2012,07,19,08,07,16.10
2012,07,19,08,08,16.10
2012,07,19,08,09,16.00
2012,07,19,08,10,15.90
2012,07,19,08,11,15.90
2012,07,19,08,12,15.80
2012,07,19,08,13,15.80
2012,07,19,08,14,15.60
2012,07,19,08,15,15.50
2012,07,19,08,16,15.40
2012,07,19,08,17,15.40
2012,07,19,08,18,15.30
2012,07,19,08,19,15.30
2012,07,19,08,20,15.30
2012,07,19,08,21,15.30
2012,07,19,08,22,15.30
2012,07,19,08,23,15.30
2012,07,19,08,24,15.30
2012,07,19,08,25,15.20
2012,07,19,08,26,15.20
2012,07,19,08,27,15.20
2012,07,19,08,28,15.10
2012,07,19,08,29,15.10
2012,07,19,08,30,15.10
2012,07,19,08,31,15.10
2012,07,19,08,32,15.10
2012,07,19,08,33,15.10
2012,07,19,08,34,15.10
2012,07,19,08,35,15.20
2012,07,19,08,36,15.20
2012,07,19,08,37,15.20
2012,07,19,08,38,15.20
2012,07,19,08,39,15.20
2012,07,19,08,40,15.20
2012,07,19,08,41,15.30
2012,07,19,08,42,15.30
2012,07,19,08,43,15.30
2012,07,19,08,44,15.40
2012,07,19,08,45,15.50
2012,07,19,08,46,15.50
2012,07,19,08,47,15.50
2012,07,19,08,48,15.50
2012,07,19,08,49,15.50
2012,07,19,08,50,15.50
2012,07,19,08,51,15.60
2012,07,19,08,52,15.60
2012,07,19,08,53,15.70
2012,07,19,08,54,15.70
2012,07,19,08,55,15.80
2012,07,19,08,56,15.80
2012,07,19,08,57,15.80
2012,07,19,08,58,15.80
2012,07,19,08,59,15.90
2012,07,19,09,00,16.00
2012,07,19,09,01,16.10
2012,07,19,09,02,16.10
2012,07,19,09,03,16.20
2012,07,19,09,04,16.20
2012,07,19,09,05,16.30
2012,07,19,09,06,16.30
2012,07,19,09,07,16.40
2012,07,19,09,08,16.50
2012,07,19,09,09,16.60
2012,07,19,09,10,16.70
2012,07,19,09,11,16.90
2012,07,19,09,12,17.00
2012,07,19,09,13,17.10
2012,07,19,09,14,17.10
2012,07,19,09,15,17.20
2012,07,19,09,16,17.20
2012,07,19,09,17,17.30
2012,07,19,09,18,17.30
2012,07,19,09,19,17.30
2012,07,19,09,20,17.30
2012,07,19,09,21,17.30
2012,07,19,09,22,17.20
2012,07,19,09,23,17.10
2012,07,19,09,24,17.10
2012,07,19,09,25,17.10
2012,07,19,09,26,17.10
2012,07,19,09,27,17.10
2012,07,19,09,28,17.10
2012,07,19,09,29,17.20
2012,07,19,09,30,17.20
2012,07,19,09,31,17.30
2012,07,19,09,32,17.30
2012,07,19,09,33,17.30
2012,07,19,09,34,17.30
2012,07,19,09,35,17.30
2012,07,19,09,36,17.40
2012,07,19,09,37,17.50
2012,07,19,09,38,17.50
2012,07,19,09,39,17.60
2012,07,19,09,40,17.70
2012,07,19,09,41,17.70
2012,07,19,09,42,17.80
2012,07,19,09,43,17.80
2012,07,19,09,44,17.80
2012,07,19,09,45,17.90
2012,07,19,09,46,17.90
2012,07,19,09,47,17.90
2012,07,19,09,48,17.90
2012,07,19,09,49,17.90
2012,07,19,09,50,17.90
2012,07,19,09,51,17.90
2012,07,19,09,52,17.90
2012,07,19,09,53,17.90
2012,07,19,09,54,17.90
2012,07,19,09,55,18.00
2012,07,19,09,56,18.10
2012,07,19,09,57,18.20
2012,07,19,09,58,18.30
2012,07,19,09,59,18.30
2012,07,19,10,00,18.40
2012,07,19,10,01,18.40
2012,07,19,10,02,18.50
2012,07,19,10,03,18.50
2012,07,19,10,04,18.60
2012,07,19,10,05,18.60
2012,07,19,10,06,18.70
2012,07,19,10,07,18.80
2012,07,19,10,08,18.90
2012,07,19,10,09,18.90
2012,07,19,10,10,19.00
2012,07,19,10,11,19.10
2012,07,19,10,12,19.10
2012,07,19,10,13,19.10
2012,07,19,10,14,19.20
2012,07,19,10,15,19.20
2012,07,19,10,16,19.20
2012,07,19,10,17,19.30
2012,07,19,10,18,19.30
2012,07,19,10,19,19.40
2012,07,19,10,20,19.40
2012,07,19,10,21,19.50
2012,07,19,10,22,19.40
2012,07,19,10,23,19.40
2012,07,19,10,24,19.30
2012,07,19,10,25,19.20
2012,07,19,10,26,19.30
2012,07,19,10,27,19.30
2012,07,19,10,28,19.20
2012,07,19,10,29,19.20
2012,07,19,10,30,19.30
2012,07,19,10,31,19.30
2012,07,19,10,32,19.40
2012,07,19,10,33,19.40
2012,07,19,10,34,19.50
2012,07,19,10,35,19.60
2012,07,19,10,36,19.60
2012,07,19,10,37,19.80
2012,07,19,10,38,19.80
2012,07,19,10,39,19.80
2012,07,19,10,40,19.90
2012,07,19,10,41,19.90
2012,07,19,10,42,19.90
2012,07,19,10,43,20.10
2012,07,19,10,44,20.20
2012,07,19,10,45,20.20
2012,07,19,10,46,20.30
2012,07,19,10,47,20.40
2012,07,19,10,48,20.40
2012,07,19,10,49,20.40
2012,07,19,10,50,20.40
2012,07,19,10,51,20.30
2012,07,19,10,52,20.40
2012,07,19,10,53,20.50
2012,07,19,10,54,20.50
2012,07,19,10,55,20.50
2012,07,19,10,56,20.50
2012,07,19,10,57,20.50
2012,07,19,10,58,20.40
2012,07,19,10,59,20.40
2012,07,19,11,00,20.40
2012,07,19,11,01,20.40
2012,07,19,11,02,20.40
2012,07,19,11,03,20.40
2012,07,19,11,04,20.50
2012,07,19,11,05,20.40
2012,07,19,11,06,20.30
2012,07,19,11,07,20.20
2012,07,19,11,08,20.20
2012,07,19,11,09,20.20
2012,07,19,11,10,20.20
2012,07,19,11,11,20.40
2012,07,19,11,12,20.50
2012,07,19,11,13,20.60
2012,07,19,11,14,20.60
2012,07,19,11,15,20.50
2012,07,19,11,16,20.50
2012,07,19,11,17,20.40
2012,07,19,11,18,20.20
2012,07,19,11,19,20.20
2012,07,19,11,20,20.10
2012,07,19,11,21,20.10
2012,07,19,11,22,20.10
2012,07,19,11,23,20.10
2012,07,19,11,24,20.00
2012,07,19,11,25,19.90
2012,07,19,11,26,19.90
2012,07,19,11,27,20.00
2012,07,19,11,28,20.10
2012,07,19,11,29,20.10
2012,07,19,11,30,20.10
2012,07,19,11,31,20.10
2012,07,19,11,32,20.10
2012,07,19,11,33,20.20
2012,07,19,11,34,20.20
2012,07,19,11,35,20.20
2012,07,19,11,36,20.20
2012,07,19,11,37,20.20
2012,07,19,11,38,20.20
2012,07,19,11,39,20.10
2012,07,19,11,40,20.00
2012,07,19,11,41,20.00
2012,07,19,11,42,20.10
2012,07,19,11,43,20.20
2012,07,19,11,44,20.20
2012,07,19,11,45,20.20
2012,07,19,11,46,20.20
2012,07,19,11,47,20.20
2012,07,19,11,48,20.20
2012,07,19,11,49,20.20
2012,07,19,11,50,20.20
2012,07,19,11,51,20.20
2012,07,19,11,52,20.20
2012,07,19,11,53,20.20
2012,07,19,11,54,20.40
2012,07,19,11,55,20.50
2012,07,19,11,56,20.60
2012,07,19,11,57,20.60
2012,07,19,11,58,20.60
2012,07,19,11,59,20.70
2012,07,19,12,00,20.90
2012,07,19,12,01,21.00
2012,07,19,12,02,21.10
2012,07,19,12,03,21.20
2012,07,19,12,04,21.30
2012,07,19,12,05,21.30
2012,07,19,12,06,21.30
2012,07,19,12,07,21.40
2012,07,19,12,08,21.30
2012,07,19,12,09,21.20
2012,07,19,12,10,21.10
2012,07,19,12,11,21.00
2012,07,19,12,12,20.90
2012,07,19,12,13,20.90
2012,07,19,12,14,21.00
2012,07,19,12,15,21.00
2012,07,19,12,16,21.10
2012,07,19,12,17,21.30
2012,07,19,12,18,21.30
2012,07,19,12,19,21.30
2012,07,19,12,20,21.40
2012,07,19,12,21,21.60
2012,07,19,12,22,21.60
2012,07,19,12,23,21.60
2012,07,19,12,24,21.60
2012,07,19,12,25,21.50
2012,07,19,12,26,21.40
2012,07,19,12,27,21.40
2012,07,19,12,28,21.40
2012,07,19,12,29,21.30
2012,07,19,12,30,21.30
2012,07,19,12,31,21.40
2012,07,19,12,32,21.50
2012,07,19,12,33,21.60
2012,07,19,12,34,21.60
2012,07,19,12,35,21.60
2012,07,19,12,36,21.60
2012,07,19,12,37,21.60
2012,07,19,12,38,21.60
2012,07,19,12,39,21.50
2012,07,19,12,40,21.40
2012,07,19,12,41,21.30
2012,07,19,12,42,21.30
2012,07,19,12,43,21.30
2012,07,19,12,44,21.30
2012,07,19,12,45,21.30
2012,07,19,12,46,21.40
2012,07,19,12,47,21.50
2012,07,19,12,48,21.60
2012,07,19,12,49,21.60
2012,07,19,12,50,21.60
2012,07,19,12,51,21.60
2012,07,19,12,52,21.60
2012,07,19,12,53,21.60
2012,07,19,12,54,21.60
2012,07,19,12,55,21.50
2012,07,19,12,56,21.40
2012,07,19,12,57,21.50
2012,07,19,12,58,21.60
2012,07,19,12,59,21.70
2012,07,19,13,00,21.70
2012,07,19,13,01,21.70
2012,07,19,13,02,21.60
2012,07,19,13,03,21.60
2012,07,19,13,04,21.60
2012,07,19,13,05,21.60
2012,07,19,13,06,21.70
2012,07,19,13,07,21.80
2012,07,19,13,08,21.80
2012,07,19,13,09,21.70
2012,07,19,13,10,21.70
2012,07,19,13,11,21.60
2012,07,19,13,12,21.60
2012,07,19,13,13,21.60
2012,07,19,13,14,21.60
2012,07,19,13,15,21.70
2012,07,19,13,16,21.80
2012,07,19,13,17,22.00
2012,07,19,13,18,22.00
2012,07,19,13,19,22.10
2012,07,19,13,20,22.20
2012,07,19,13,21,22.20
2012,07,19,13,22,22.00
2012,07,19,13,23,21.90
2012,07,19,13,24,22.00
2012,07,19,13,25,22.00
2012,07,19,13,26,21.90
2012,07,19,13,27,22.00
2012,07,19,13,28,22.00
2012,07,19,13,29,22.00
2012,07,19,13,30,22.00
2012,07,19,13,31,21.90
2012,07,19,13,32,21.70
2012,07,19,13,33,21.80
2012,07,19,13,34,21.90
2012,07,19,13,35,21.90
2012,07,19,13,36,21.90
2012,07,19,13,37,21.80
2012,07,19,13,38,21.90
2012,07,19,13,39,21.90
2012,07,19,13,40,21.90
2012,07,19,13,41,21.80
2012,07,19,13,42,21.70
2012,07,19,13,43,21.70
2012,07,19,13,44,21.70
2012,07,19,13,45,21.70
2012,07,19,13,46,21.60
2012,07,19,13,47,21.60
2012,07,19,13,48,21.60
2012,07,19,13,49,21.60
2012,07,19,13,50,21.60
2012,07,19,13,51,21.60
2012,07,19,13,52,21.60
2012,07,19,13,53,21.60
2012,07,19,13,54,21.50
2012,07,19,13,55,21.40
2012,07,19,13,56,21.50
2012,07,19,13,57,21.60
2012,07,19,13,58,21.70
2012,07,19,13,59,21.90
2012,07,19,14,00,22.00
2012,07,19,14,01,22.00
2012,07,19,14,02,22.00
2012,07,19,14,03,22.00
2012,07,19,14,04,21.90
2012,07,19,14,05,21.90
2012,07,19,14,06,22.10
2012,07,19,14,07,22.20
2012,07,19,14,08,22.30
2012,07,19,14,09,22.30
2012,07,19,14,10,22.30
2012,07,19,14,11,22.40
2012,07,19,14,12,22.40
2012,07,19,14,13,22.50
2012,07,19,14,14,22.70
2012,07,19,14,15,22.80
2012,07,19,14,16,23.00
2012,07,19,14,17,23.20
2012,07,19,14,18,23.30
2012,07,19,14,19,23.30
2012,07,19,14,20,23.30
2012,07,19,14,21,23.30
2012,07,19,14,22,23.30
2012,07,19,14,23,23.30
2012,07,19,14,24,23.40
2012,07,19,14,25,23.40
2012,07,19,14,26,23.40
2012,07,19,14,27,23.40
2012,07,19,14,28,23.40
2012,07,19,14,29,23.40
2012,07,19,14,30,23.30
2012,07,19,14,31,23.30
2012,07,19,14,32,23.30
2012,07,19,14,33,23.30
2012,07,19,14,34,23.30
2012,07,19,14,35,23.30
2012,07,19,14,36,23.30
2012,07,19,14,37,23.40
2012,07,19,14,38,23.50
2012,07,19,14,39,23.40
2012,07,19,14,40,23.30
2012,07,19,14,41,23.30
2012,07,19,14,42,23.20
2012,07,19,14,43,23.00
2012,07,19,14,44,22.80
2012,07,19,14,45,22.60
2012,07,19,14,46,22.60
2012,07,19,14,47,22.80
2012,07,19,14,48,23.00
2012,07,19,14,49,23.20
2012,07,19,14,50,23.30
2012,07,19,14,51,23.30
2012,07,19,14,52,23.30
2012,07,19,14,53,23.30
2012,07,19,14,54,23.30
2012,07,19,14,55,23.40
2012,07,19,14,56,23.40
2012,07,19,14,57,23.40
2012,07,19,14,58,23.30
2012,07,19,14,59,23.30
2012,07,19,15,00,23.30
2012,07,19,15,01,23.20
2012,07,19,15,02,23.20
2012,07,19,15,03,23.10
2012,07,19,15,04,23.00
2012,07,19,15,05,22.90
2012,07,19,15,06,22.90
2012,07,19,15,07,22.90
2012,07,19,15,08,22.90
2012,07,19,15,09,22.90
2012,07,19,15,10,22.80
2012,07,19,15,11,22.80
2012,07,19,15,12,22.80
2012,07,19,15,13,22.80
2012,07,19,15,14,22.80
2012,07,19,15,15,22.80
2012,07,19,15,16,22.80
2012,07,19,15,17,22.80
2012,07,19,15,18,22.70
2012,07,19,15,19,22.70
2012,07,19,15,20,22.70
2012,07,19,15,21,22.70
2012,07,19,15,22,22.70
2012,07,19,15,23,22.60
2012,07,19,15,24,22.70
2012,07,19,15,25,22.80
2012,07,19,15,26,22.90
2012,07,19,15,27,23.10
2012,07,19,15,28,23.10
2012,07,19,15,29,23.00
2012,07,19,15,30,22.90
2012,07,19,15,31,22.90
2012,07,19,15,32,22.90
2012,07,19,15,33,22.90
2012,07,19,15,34,22.90
2012,07,19,15,35,23.10
2012,07,19,15,36,23.10
2012,07,19,15,37,23.20
2012,07,19,15,38,23.30
2012,07,19,15,39,23.30
2012,07,19,15,40,23.20
2012,07,19,15,41,23.20
2012,07,19,15,42,23.10
2012,07,19,15,43,23.00
2012,07,19,15,44,22.90
2012,07,19,15,45,22.90
2012,07,19,15,46,22.90
2012,07,19,15,47,22.80
2012,07,19,15,48,22.80
2012,07,19,15,49,22.80
2012,07,19,15,50,22.80
2012,07,19,15,51,22.90
2012,07,19,15,52,22.90
2012,07,19,15,53,22.90
2012,07,19,15,54,22.90
2012,07,19,15,55,22.80
2012,07,19,15,56,22.80
2012,07,19,15,57,22.70
2012,07,19,15,58,22.70
2012,07,19,15,59,22.70
2012,07,19,16,00,22.80
2012,07,19,16,01,22.80
2012,07,19,16,02,22.80
2012,07,19,16,03,22.80
2012,07,19,16,04,22.80
2012,07,19,16,05,22.90
2012,07,19,16,06,23.00
2012,07,19,16,07,23.20
2012,07,19,16,08,23.30
2012,07,19,16,09,23.30
2012,07,19,16,10,23.50
2012,07,19,16,11,23.60
2012,07,19,16,12,23.70
2012,07,19,16,13,23.70
2012,07,19,16,14,23.70
2012,07,19,16,15,23.70
2012,07,19,16,16,23.60
2012,07,19,16,17,23.50
2012,07,19,16,18,23.40
2012,07,19,16,19,23.50
2012,07,19,16,20,23.60
2012,07,19,16,21,23.70
2012,07,19,16,22,23.70
2012,07,19,16,23,23.70
2012,07,19,16,24,23.70
2012,07,19,16,25,23.60
2012,07,19,16,26,23.60
2012,07,19,16,27,23.60
2012,07,19,16,28,23.70
2012,07,19,16,29,23.70
2012,07,19,16,30,23.80
2012,07,19,16,31,23.90
2012,07,19,16,32,23.90
2012,07,19,16,33,24.00
2012,07,19,16,34,24.10
2012,07,19,16,35,24.10
2012,07,19,16,36,24.10
2012,07,19,16,37,24.10
2012,07,19,16,38,24.10
2012,07,19,16,39,24.00
2012,07,19,16,40,23.80
2012,07,19,16,41,23.70
2012,07,19,16,42,23.70
2012,07,19,16,43,23.70
2012,07,19,16,44,23.70
2012,07,19,16,45,23.70
2012,07,19,16,46,23.70
2012,07,19,16,47,23.80
2012,07,19,16,48,23.90
2012,07,19,16,49,23.90
2012,07,19,16,50,23.90
2012,07,19,16,51,23.90
2012,07,19,16,52,23.90
2012,07,19,16,53,23.90
2012,07,19,16,54,23.90
2012,07,19,16,55,23.80
2012,07,19,16,56,23.80
2012,07,19,16,57,23.80
2012,07,19,16,58,23.80
2012,07,19,16,59,23.80
2012,07,19,17,00,23.90
2012,07,19,17,01,23.90
2012,07,19,17,02,23.90
2012,07,19,17,03,24.10
2012,07,19,17,04,24.10
2012,07,19,17,05,24.10
2012,07,19,17,06,24.10
2012,07,19,17,07,24.10
2012,07,19,17,08,24.10
2012,07,19,17,09,24.20
2012,07,19,17,10,24.10
2012,07,19,17,11,24.10
2012,07,19,17,12,24.10
2012,07,19,17,13,23.90
2012,07,19,17,14,23.80
2012,07,19,17,15,23.80
2012,07,19,17,16,23.80
2012,07,19,17,17,23.90
2012,07,19,17,18,23.90
2012,07,19,17,19,23.80